Location: New York
(40.7127°N, 74.0060°W)
Time: 17:07:43
(UTC-04:00)

VELOX 1 - Pass Details

Date: 02 May 2024
Orbit: 605 x 617 km, 98.3° (Epoch: 27 May)

Event Time Altitude Azimuth Distance (km) Brightness Sun altitude
Rises 20:16:48 0° 24° (NNE) 2,900 ? -4.8°
Reaches altitude 10° 20:19:15 10° 36° (NE) 1,988 ? -5.2°
Maximum altitude 20:23:00 28° 97° (E) 1,154 ? -5.9°
Drops below altitude 10° 20:26:42 10° 157° (SSE) 1,970 ? -6.5°
Sets 20:29:07 0° 169° (SSE) 2,868 ? -6.9°
